Regional Weather Roundup
Issued by NWS Mobile, AL

Home | Current Version | Previous Version | Text Only | Print | Product List | Glossary On
Versions: 1 2 3 4 5 6 7 8 9 10 11 12 13 14 15 16 17 18 19 20 21 22 23 24 25 26 27 28 29 30 31 32 33 34 35 36 37 38 39 40 41 42 43 44 45 46 47 48 49 50
000
ASUS44 KMOB 010115
RWRMOB
REGIONAL WEATHER ROUNDUP
NATIONAL WEATHER SERVICE MOBILE AL
800 PM CDT MON AUG 31 2015

ALZ061>064-010200-
COASTAL ALABAMA


CITY           SKY/WX    TMP DP  RH WIND       PRES   REMARKS
MOBILE REG APT CLEAR     80  70  71 SW6       30.04R
BROOKLEY FIELD CLEAR     83  69  62 CALM      30.04R
GULF SHORES    CLEAR     78  72  83 CALM      30.02S

$$

ALZ051>060-010200-
INTERIOR SOUTHWEST AND SOUTH CENTRAL ALABAMA


CITY           SKY/WX    TMP DP  RH WIND       PRES   REMARKS
ANDALUSIA/OPP  CLEAR     81  71  71 CALM      30.04R
EVERGREEN      MOCLDY    79  74  84 CALM      30.04R
FLORALA        CLEAR     78  71  79 CALM      30.05R
GREENVILLE     FAIR      79  72  79 CALM      30.04R

$$

FLZ001>006-010200-
WESTERN FLORIDA PANHANDLE


CITY           SKY/WX    TMP DP  RH WIND       PRES   REMARKS
CRESTVIEW      FAIR      78  72  81 CALM      30.04R
DESTIN         FAIR      86  74  67 CALM      30.02R
DUKE FIELD     CLEAR     83  70  64 CALM      30.03R
MARY ESTHER    FAIR      84  71  64 CALM      30.01R
MILTON         FAIR      84  71  65 CALM      30.03R
PENSACOLA      PTCLDY    83  70  64 SW7       30.02R
NAS PENSACOLA  FAIR      79  71  76 CALM      30.02R
VALPARAISO     PTCLDY    85  72  64 CALM      30.02R

$$

...MARINE OBSERVATIONS...

STATION/POSITION TIME  SKY/WX   TEMP    WIND        PRES    VSBY
                                AIR SEA DIR/SP/G
                 (UTC)          (F)     (DEG/KT/KT) (MB)    (MI)
PASCAGOULA       0000            85     200/  7/  9 1016.4R
GRAND BAY        2345            85     210/  8     1017.0
PETIT BOIS ISL   0000            84     190/  7/  9 1017.0F
E DAUPHIN ISLAND 0100            84     200/  5/  7 1016.6R
MIDDLE BAY LIGHT 0000                   200/ 11     1015.9F
USCG MOBILE BAY  0000            86 84  200/  4/  7 1015.2R
STATE DOCKS      0000            88 85              1015.9R
MEAHER PARK      0100            86     190/  9     1015.9R
FORT MORGAN      0000            85     210/  7/  8 1016.0S
12 S ORANGE BCH  0050            85 86  210/  8/  8 1016.2R
WVE H/P(F/S)=  1/ 7

PENSACOLA BAY    0000            86 86  230/  6/  9 1016.3S
64 S DAUPHIN ISL 0050            83 87  110/  6/  8 1017.1R
WVE H/P(F/S)=  1/ 7

115 SE PENSACOLA 0050            85 86   90/ 10/ 12 1016.7S
WVE H/P(F/S)=  2/ 5

MID GULF/42001   0100            85 86   80/ 12/ 14 1016.3R
EAST GULF/42003  0050            85 87   40/  6/  8 1015.3S
WVE H/P(F/S)=  2/ 4


$$

...NEARBY LOCATIONS

CITY           SKY/WX    TMP DP  RH WIND       PRES   REMARKS
GULFPORT       CLEAR     82  70  66 CALM      30.02R
BILOXI         CLEAR     82  70  67 SW7       30.02R
PASCAGOULA     CLEAR     77  71  82 CALM      30.02R
HATTIESBURG    PTCLDY    82  68  62 CALM      30.02R
LAUREL         CLEAR     81  64  57 CALM      30.04R
MERIDIAN       PTCLDY    79  73  82 CALM      30.03R
MERIDIAN NAS   PTCLDY    82  69  64 E5        30.04R
MONTGOMERY     CLEAR     84  67  56 NE3       30.04R
MAXWELL AFB    CLEAR     80  71  73 N5        30.04R
TROY           CLEAR     77  72  84 CALM      30.06R
FORT RUCKER    CLEAR     80  69  69 CALM      30.03R
DALEVILLE      PTCLDY    81  70  70 E3        30.04R
DOTHAN         CLEAR     79  73  82 CALM      30.08R

$$

...OTHER SURROUNDING LOCATIONS...

CITY           SKY/WX    TMP DP  RH WIND       PRES   REMARKS
BIRMINGHAM     PTCLDY    77  70  79 CALM      30.09S
TUSCALOOSA     CLEAR     79  69  71 NE3       30.05R
COLUMBUS GA    CLEAR     81  67  62 E5        30.05R
PANAMA CITY    NOT AVBL
TALLAHASSEE    MOCLDY    84  72  67 E5        30.03R
BATON ROUGE    CLOUDY    80  74  81 W5        30.02S
NEW ORLEANS    MOCLDY    83  70  64 S7        30.02R
SLIDELL        PTCLDY    81  72  74 CALM      30.02R
JACKSON        MOCLDY    84  64  50 CALM      30.01R
MCCOMB         PTCLDY    82  71  69 W3        30.02F

$$

...SURROUNDING MARINE OBSERVATIONS...

STATION/POSITION TIME  SKY/WX   TEMP    WIND        PRES    VSBY
                                AIR SEA DIR/SP/G
                 (UTC)          (F)     (DEG/KT/KT) (MB)    (MI)
WAVELAND         0000            84 84  210/  4/  6 1016.8R
PASCAGOULA RGN A 0000            85     210/  8/ 10 1016.0S
PASCAGOULA PORT  0000               89                N/A
GRAND ISLE       0000            85 86  120/  2/  5 1016.9S
SOUTHWEST PASS   0100                                 N/A
PILOT STATION E  0000            87 87  110/  7/  9 1016.9F
SHELL BEACH      0000            83 86  170/  5/  7 1016.2R
PANAMA CITY      0000            86 86  190/  5/  6 1015.9R
APALACHICOLA     0000            85 88  130/  4/  5 1016.5R
TYNDALL TOWER C  0100            84     100/  9/ 10 1016.6R
S APLCHCLA/42036 0050            84 86   80/ 10/ 10 1016.3S
WVE H/P(F/S)=  2/ 4


$$



USA.gov is the U.S. government's official web portal to all federal, state and local government web resources and services.